Terug naar catalogus

SL-16 DEB

ActiefLEO
NORAD 22620·DEBRIS·🇷🇺 Russia

Gelanceerd Mar 26, 1993 vanaf Baikonur Cosmodrome

Loading…

Volgende Passages (komende 24 uur)

TLE

VersSource: Space-Track

Epoch: Sep 14, 2026, 14:49 UTC

1 22620U 93016AE  26257.61793626 -.00000019  00000-0  20344-4 0  9991
2 22620  71.0086  17.6243 0132053  81.5358 291.4906 13.84136984689914

Volg SL-16 DEB in realtime met AllMySat

Download on the App Store